EW1388 Weather Reports


time (UTC)temp
C
wind
direction
speed
KPH
gust
KPH
rain 1hr
cm
rain 24hr
cm
rain mn
cm
humidity
%
barometer
mb
20260906144548 23 84 6.4 17.7 0.00 0.00 0.00 86 1014.8
20260906143050 22 17 3.2 20.9 0.00 0.00 0.00 88 1014.7
20260906141546 22 90 9.7 17.7 0.00 0.00 0.00 90 1014.7
20260906140043 21 96 3.2 16.1 0.00 0.00 0.00 91 1014.8
20260906134538 21 107 3.2 17.7 0.00 0.00 0.00 92 1014.6
20260906133058 21 38 6.4 16.1 0.00 0.00 0.00 93 1014.3
20260906131537 21 39 1.6 9.7 0.00 0.00 0.00 93 1014.7
20260906130036 21 79 0.0 8.0 0.00 0.00 0.00 94 1014.7
20260906124535 20 23 0.0 6.4 0.00 0.00 0.00 94 1014.6
20260906123036 20 76 1.6 3.2 0.00 0.00 0.00 94 1014.5
20260906121531 20 76 0.0 1.6 0.00 0.00 0.00 94 1014.3
20260906120032 20 76 0.0 1.6 0.00 0.00 0.00 94 1014.1
20260906114542 20 76 0.0 0.0 0.00 0.00 0.00 94 1013.9
20260906113026 20 76 0.0 0.0 0.00 0.00 0.00 93 1013.6
20260906111524 20 76 0.0 4.8 0.00 0.00 0.00 93 1013.6
20260906110022 20 76 0.0 4.8 0.00 0.00 0.00 93 1013.3
20260906104523 20 76 0.0 6.4 0.00 0.00 0.00 93 1013.3
20260906103017 20 93 1.6 8.0 0.00 0.00 0.00 93 1013.0
20260906101522 20 95 0.0 4.8 0.00 0.00 0.00 93 1012.9
20260906100024 20 76 3.2 14.5 0.00 0.00 0.00 93 1012.6
20260906094515 21 85 4.8 12.9 0.00 0.00 0.00 93 1012.6
20260906093013 21 86 3.2 14.5 0.00 0.00 0.00 93 1012.5
20260906091519 21 59 1.6 11.3 0.00 0.00 0.00 93 1012.7
20260906090015 21 27 1.6 14.5 0.00 0.00 0.00 92 1012.3
20260906084510 21 82 4.8 17.7 0.00 0.00 0.00 92 1012.4
20260906083007 21 76 6.4 19.3 0.00 0.00 0.00 92 1012.6
20260906081505 21 30 4.8 17.7 0.00 0.00 0.00 92 1012.7
20260906080003 22 93 8.0 19.3 0.00 0.00 0.00 92 1012.6
20260906074600 22 88 9.7 16.1 0.00 0.00 0.00 92 1012.6
20260906073057 22 73 4.8 14.5 0.00 0.00 0.00 92 1012.6
20260906071600 22 93 3.2 16.1 0.00 0.00 0.00 92 1012.5
20260906070058 22 98 8.0 16.1 0.00 0.00 0.00 91 1012.4
20260906064554 22 96 1.6 8.0 0.00 0.00 0.00 91 1012.7
20260906063049 22 70 0.0 9.7 0.00 0.00 0.00 91 1012.9
20260906061549 22 45 0.0 8.0 0.00 0.00 0.00 91 1012.9
20260906060046 22 36 1.6 4.8 0.00 0.00 0.00 91 1012.9
20260906054556 22 45 0.0 3.2 0.00 0.00 0.00 91 1012.7
20260906053037 22 61 0.0 4.8 0.00 0.00 0.00 91 1012.5
20260906051542 22 23 0.0 6.4 0.00 0.00 0.00 91 1012.4
20260906050029 22 75 1.6 9.7 0.00 0.00 0.00 90 1012.2
20260906044527 23 98 3.2 9.7 0.00 0.00 0.00 90 1012.1
20260906043025 23 40 1.6 8.0 0.00 0.00 0.00 90 1011.8
20260906041527 23 36 1.6 11.3 0.00 0.00 0.00 89 1011.7
20260906040032 23 63 8.0 12.9 0.00 0.00 0.00 88 1011.6
20260906034519 24 91 8.0 16.1 0.00 0.00 0.00 87 1011.4
20260906033034 24 74 8.0 17.7 0.00 0.00 0.00 88 1011.5
20260906031515 25 59 4.8 12.9 0.00 0.00 0.00 89 1011.3
20260906030014 25 54 0.0 9.7 0.00 0.00 0.00 89 1011.3
20260906024513 25 53 0.0 8.0 0.00 0.00 0.00 88 1011.3
20260906023010 26 38 1.6 8.0 0.00 0.00 0.00 87 1011.0
20260906021510 26 345 3.2 14.5 0.00 0.00 0.00 85 1010.7
20260906020010 26 94 4.8 16.1 0.00 0.00 0.00 85 1010.5
20260906014509 27 45 3.2 14.5 0.00 0.00 0.00 84 1010.3
20260906013008 27 34 0.0 6.4 0.00 0.00 0.00 83 1010.1
20260906011514 27 57 1.6 14.5 0.00 0.00 0.00 83 1009.9
20260906010007 28 25 3.2 9.7 0.00 0.00 0.00 82 1009.9
20260906004507 28 18 4.8 14.5 0.00 0.00 0.00 80 1009.9
20260906003006 30 25 0.0 6.4 0.00 0.00 0.00 77 1009.8
20260906001504 30 42 0.0 0.0 0.00 0.00 0.00 77 1009.8
20260906000005 30 42 0.0 3.2 0.00 0.00 0.00 76 1009.8
20260905234505 31 42 0.0 4.8 0.00 0.00 0.00 74 1009.6
20260905233002 31 42 0.0 8.0 0.00 0.00 0.00 74 1009.5
20260905231503 31 47 0.0 4.8 0.00 0.00 0.00 75 1009.4
20260905230003 31 47 1.6 9.7 0.00 0.00 0.00 73 1009.5
20260905224501 32 51 3.2 8.0 0.00 0.00 0.00 70 1009.4
20260905223116 32 31 0.0 9.7 0.00 0.00 0.00 68 1009.3
20260905221604 32 20 3.2 9.7 0.00 0.00 0.00 68 1009.4
20260905220059 32 26 1.6 8.0 0.00 0.00 0.00 69 1009.5
20260905214602 32 36 0.0 8.0 0.00 0.00 0.00 69 1009.4
20260905213103 32 11 3.2 8.0 0.00 0.00 0.00 69 1009.4
20260905211558 32 360 3.2 9.7 0.00 0.00 0.00 71 1009.5
20260905210104 32 28 1.6 8.0 0.00 0.00 0.00 70 1009.6
20260905204556 32 5 0.0 4.8 0.00 0.00 0.00 68 1009.7
20260905203058 33 24 0.0 4.8 0.00 0.00 0.00 67 1009.7
20260905201555 33 42 0.0 3.2 0.00 0.00 0.00 66 1009.9
20260905200053 33 43 0.0 4.8 0.00 0.00 0.00 64 1009.9
20260905194551 33 9 0.0 4.8 0.00 0.00 0.00 64 1010.1
20260905193047 33 5 0.0 0.0 0.00 0.00 0.00 65 1010.1
20260905191544 33 360 0.0 3.2 0.00 0.00 0.00 65 1010.1
20260905190142 33 360 1.6 4.8 0.00 0.00 0.00 65 1010.2
20260905184553 33 25 3.2 9.7 0.00 0.00 0.00 66 1010.3
20260905183038 33 32 0.0 8.0 0.00 0.00 0.00 67 1010.4
20260905181537 33 23 0.0 8.0 0.00 0.00 0.00 66 1010.4
20260905180041 33 41 1.6 6.4 0.00 0.00 0.00 67 1010.5
20260905174533 32 329 1.6 4.8 0.00 0.00 0.00 67 1010.6
20260905173030 32 355 1.6 4.8 0.00 0.00 0.00 65 1010.9
20260905171530 32 320 1.6 4.8 0.00 0.00 0.00 65 1010.8
20260905170026 33 360 1.6 6.4 0.00 0.00 0.00 65 1010.8
20260905164530 32 327 3.2 8.0 0.00 0.00 0.00 63 1010.8
20260905163026 32 327 0.0 4.8 0.00 0.00 0.00 64 1010.9
20260905161521 32 323 1.6 4.8 0.00 0.00 0.00 67 1010.8
20260905160019 31 305 1.6 3.2 0.00 0.00 0.00 68 1010.8
20260905154516 31 305 0.0 3.2 0.00 0.00 0.00 68 1010.7
20260905153018 31 286 1.6 4.8 0.00 0.00 0.00 70 1010.7
20260905151518 30 286 1.6 4.8 0.00 0.00 0.00 71 1010.7
20260905150008 30 286 1.6 4.8 0.00 0.00 0.00 70 1010.5